Content
SEND FEEDBACK

Daily
Averages
Monthly
Summary
Canada

QUEBEC CITY, QUEBEC


Home > North America > Canada > Quebec
Elevation: 239 feet     Latitude: 46 48N     Longitude: 071 23W

WEATHER
 
SELECT A DAY
Number of Records: 195,930;   Date Range: 6/30/96 - 10/24/14
 
SHARE

PRINT THIS DATA

[ ← Previous Day ]
WEATHER ALMANAC - JULY 7, 2013
[ Next Day → ]
[ °C ]   °F
We're sorry. There is no daily almanac available for Quebec City, Quebec on July 7, 2013.
WEATHER BY HOUR - JULY 7, 2013
[ °C ]   °F
Local TimeTemperatureDewpointHumidityBarometerVisibilityWind DirectionWind SpeedGust SpeedPrecipitationEventsConditions
1:00 AM73.4 °F66.2 °F78 %29.88 in15.0 miWSW (240°)13.8 mphClear
2:00 AM72.0 °F67.0 °F79 %29.86 inWSW (240°)6.9 mph
2:00 AM71.6 °F66.2 °F83 %29.88 in15.0 miWSW (240°)12.7 mphClear
3:00 AM69.8 °F66.2 °F88 %29.88 in15.0 miSW (230°)9.2 mphPartly Cloudy
4:00 AM69.8 °F66.2 °F88 %29.87 in15.0 miWSW (240°)11.5 mphPartly Cloudy
5:00 AM69.0 °F66.0 °F88 %29.87 inSW (230°)3.5 mph
5:00 AM68.0 °F66.2 °F94 %29.88 in15.0 miWSW (250°)9.2 mphPartly Cloudy
6:00 AM68.0 °F66.2 °F94 %29.89 in10.0 miWSW (250°)11.5 mphPartly Cloudy
7:00 AM69.8 °F66.2 °F88 %29.90 in10.0 miWSW (240°)13.8 mphPartly Cloudy
8:00 AM72.0 °F66.0 °F77 %29.90 inWSW (240°)8.1 mph
8:00 AM73.4 °F66.2 °F78 %29.92 in15.0 miWSW (250°)12.7 mphScattered Clouds
9:00 AM77.0 °F66.2 °F69 %29.93 in15.0 miWSW (240°)12.7 mphPartly Cloudy
10:00 AM78.8 °F68.0 °F69 %29.93 in20.0 miSW (230°)10.4 mphMostly Cloudy
11:00 AM78.0 °F67.0 °F62 %29.90 inWSW (240°)9.2 mph
11:00 AM78.8 °F68.0 °F69 %29.92 in20.0 miSW (220°)18.4 mphMostly Cloudy
12:00 PM77.0 °F68.0 °F74 %29.92 in20.0 miWSW (250°)11.5 mphMostly Cloudy
1:00 PM80.6 °F68.0 °F65 %29.92 in20.0 miWest (260°)12.7 mphMostly Cloudy
2:00 PM79.0 °F68.0 °F60 %29.90 inWest (260°)6.9 mph
2:00 PM80.6 °F64.4 °F58 %29.92 in25.0 miWest (260°)11.5 mphMostly Cloudy
3:00 PM80.6 °F64.4 °F58 %29.91 in25.0 miWest (270°)9.2 mphMostly Cloudy
4:00 PM80.6 °F64.4 °F58 %29.91 in20.0 miWest (270°)12.7 mphMostly Cloudy
5:00 PM80.0 °F63.0 °F47 %29.88 inWNW (290°)6.9 mph
5:00 PM80.6 °F64.4 °F58 %29.90 in15.0 miWNW (300°)9.2 mphOvercast
6:00 PM77.0 °F57.2 °F50 %29.90 in15.0 miWNW (300°)10.4 mphOvercast
7:00 PM75.2 °F57.2 °F53 %29.91 in15.0 miWest (280°)4.6 mphOvercast
8:00 PM71.0 °F59.0 °F56 %29.90 inWNW (300°)4.6 mph
8:00 PM73.4 °F57.2 °F57 %29.92 in15.0 miNW (310°)4.6 mphMostly Cloudy
9:00 PM71.6 °F55.4 °F57 %29.94 in15.0 miNNW (330°)5.8 mphMostly Cloudy
10:00 PM68.0 °F50.0 °F52 %29.95 in15.0 miNorth (360°)5.8 mphMostly Cloudy
11:00 PM67.0 °F53.0 °F52 %29.96 inNorth (10°)4.6 mph
11:00 PM68.0 °F51.8 °F56 %29.98 in15.0 miNorth (10°)4.6 mphMostly Cloudy
Hourly data recorded from CYQB, located miles away from Quebec City, Quebec







STORIES FROM OUR PARTNERS